Weather in Vojkovo

Russia / Republic of Crimea     45°23′05″N   36°26′05″E
temp.,
°C
wind,
m/s
gust,
m/s
humid.,
%
clouds,
%
prec.,
mm/h
press.,
hPa
HPBL,
m
24 january, sun
sun2400:00+8s8138296 0.0 1020255
03:00+8sse7108551 0.0 1019193
06:00+8s8128197 0.0 1018211
09:00+8sse7118099 0.0 1018191
12:00+9se71077100 0.0 1017179
15:00+9sse81275100 0.0 1015236
18:00+9sse91479100 0.0 1015312
21:00+8sse81385100 0.0 1015268
25 january, mon
mon2500:00+8ssw6882100 0.0 1015143
03:00+8sse678388 0.1 101588
06:00+8s812850 0.0 1015185
09:00+8sse9138260 0.0 1015210
12:00+9sse101575100 0.0 1014255
15:00+9sse10157279 0.0 1011298
18:00+9sse122072100 0.0 1011428
21:00+9s101477100 0.0 1010269
26 january, tue
tue2600:00+10s111881100 1.3 1010352
03:00+9ssw9158293 1.3 1012260
06:00+8ssw6889100 0.0 1012117
09:00+9s6990100 0.0 1012123
12:00+9sse111681100 0.0 1012317
15:00+9s7981100 0.0 1010140
18:00+9ssw5783100 0.0 100991
21:00+9s81183100 0.0 1010143
27 january, wed
wed2700:00+9sse6783100 0.0 100989
03:00+9sse71084100 0.0 1007132
06:00+10sse101678100 0.0 1005263
09:00+9sse91384100 0.2 1005200
12:00+10sse101376100 0.0 1003234
15:00+10sse101577100 0.0 1002260
18:00+10sse101677100 0.0 1001307
21:00+9sse81178100 0.0 1000153
28 january, thu
thu2800:00+9se6779100 0.0 99961
03:00+9ssw7879100 0.0 100092
06:00+6wsw5696100 0.0 1001246
09:00+4w7978100 1.0 1006647
12:00+4w91072100 0.1 1008921
15:00+4w81066100 0.1 10091292
18:00+3w91084100 0.1 1007671
21:00+3w81073100 0.2 10081069